User: anonymous   Login
Location: ?????
(31.8092°N, 35.2590°E)
Time: 05:10:41
(UTC+00:00)
Language:

CZ-2D R/B - Orbit

View from above orbital plane
View from above orbital plane
View from above satellite
View from above satellite

Ground track
Ground track

The orbit data is extracted from the following two-line orbital elements,

1 37932U 11068C   21261.81856660 -.00000001  00000-0  19266-4 0  9992
2 37932  98.6931 196.6588 0036309 217.4687 201.1644 14.22081954510247
Epoch (UTC): 18 September 2021 19:38:44
Eccentricity: 0.0036309
inclination: 98.6931°
perigee height: 792 km
apogee height: 844 km
right ascension of ascending node: 196.6588°
argument of perigee: 217.4687°
revolutions per day: 14.22081954
mean anomaly at epoch: 201.1644°
orbit number at epoch: 51024

The dashed part of the orbit path shows where the satellite is in the earth's shadow,  

DLR